CAPE
0 0 0 0 0 0 0 0 0 0 0 0 0 0 0 0 0 0 0 0 0 0 0 0 0 0 7 0 0 8 15 17 10 1 1 0 0 0 0 3 0 0 0
0 0 0 0 0 0 0 0 0 0 0 0 0 0 0 0 0 0 0 0 0 0 0 0 0 0 0 0 0 3 6 17 13 4 0 0 0 4 0 0 6 0 0
0 0 0 0 0 0 0 0 0 0 0 0 0 0 0 0 0 0 0 0 0 0 0 0 0 0 0 0 0 2 6 4 9 11 4 2 4 0 5 1 0 0 0
0 0 0 0 0 0 0 0 0 0 0 0 0 0 0 0 0 0 0 0 0 0 0 0 0 0 0 0 0 1 13 11 14 9 2 1 0 0 1 8 1 2 2
0 0 0 0 0 0 0 0 0 0 0 0 0 0 0 0 0 0 0 0 0 0 0 0 0 0 0 0 0 0 0 0 0 5 3 2 1 6 2 3 2 0 0
0 0 0 0 0 0 0 0 0 0 0 0 0 0 0 0 0 0 0 0 0 0 0 0 0 0 0 0 0 0 0 0 0 0 2 1 0 0 0 2 3 3 4
0 0 0 0 0 0 0 0 0 0 0 0 0 0 0 0 0 0 0 0 0 0 0 0 0 0 0 0 0 0 0 0 0 0 0 0 0 0 0 1 2 5 8
0 0 0 0 0 0 0 0 0 0 0 0 0 0 0 0 0 0 0 0 0 0 0 0 0 0 0 0 0 0 0 0 0 0 0 0 0 0 0 0 2 3 4
0 0 0 0 0 0 0 0 0 0 0 0 0 0 0 0 0 0 0 0 0 0 0 0 0 0 0 1 0 0 0 0 0 0 0 1 0 0 0 0 1 2 1
0 0 0 0 0 0 0 0 0 0 0 0 0 0 0 0 0 0 0 0 0 0 0 0 0 0 1 11 4 1 0 0 0 0 0 0 0 0 0 0 1 11 4
0 0 0 0 0 0 0 0 0 0 0 0 0 0 0 0 0 0 1 0 0 0 0 0 0 8 17 25 28 12 0 6 4 0 0 0 0 0 0 0 0 1 4
0 0 0 0 0 0 0 0 0 0 0 0 0 0 0 0 0 0 2 6 5 1 0 0 0 11 25 32 31 38 38 32 0 0 0 0 0 0 0 0 0 0 0
0 0 0 0 0 0 0 0 0 0 0 0 0 0 0 0 0 0 0 3 11 9 5 8 20 21 27 12 1 4 17 0 0 0 0 0 0 0 0 0 0 0 0
0 0 0 0 0 0 0 0 0 0 0 0 0 0 0 0 0 0 0 0 1 0 0 0 11 29 19 5 1 0 0 0 0 0 0 0 0 0 0 0 0 0 2
0 0 0 0 0 0 0 0 0 0 0 0 0 0 0 0 0 6 10 10 8 6 13 0 0 0 0 0 0 0 0 0 0 0 0 0 0 0 1 0 0 0 4
0 0 0 0 0 0 0 0 0 0 0 0 4 3 1 8 13 10 11 11 15 12 3 1 0 1 12 0 0 0 0 1 0 0 0 0 0 0 0 0 0 0 0
0 0 0 0 0 0 0 0 0 0 0 0 0 4 7 10 9 10 11 13 20 8 0 0 0 0 0 0 2 0 0 0 0 0 0 0 0 0 0 0 0 0 3
0 0 0 0 0 0 0 0 0 0 0 0 0 0 5 7 7 9 11 10 0 0 0 0 0 0 0 0 0 0 0 0 0 0 0 0 0 0 0 0 0 0 0
0 0 0 0 0 0 0 0 0 0 0 0 0 0 1 3 4 10 9 0 0 0 0 0 0 0 1 0 0 0 0 0 0 0 0 0 0 0 1 0 0 11 17
0 0 0 0 0 0 0 0 0 0 0 0 0 0 0 0 1 0 0 0 0 0 0 0 0 0 0 0 0 0 0 0 0 0 0 0 0 0 1 0 0 1 0
0 0 0 0 0 0 0 0 0 0 0 0 0 0 7 2 0 0 0 0 0 0 0 0 0 0 0 0 0 0 0 0 0 0 0 0 0 1 0 2 1 0 0
0 0 0 0 0 0 0 0 0 0 0 0 0 0 3 0 0 0 0 0 0 0 0 0 0 0 0 0 0 0 0 0 0 0 0 0 0 0 0 0 0 0 2
0 0 0 0 0 0 0 0 0 0 0 0 0 0 0 0 0 0 0 0 0 0 0 0 0 0 0 0 0 0 0 0 0 0 0 0 0 0 0 0 1 2 0
0 0 0 0 0 0 0 0 0 0 0 0 0 0 0 0 0 0 0 0 0 0 0 0 0 0 0 0 0 0 0 0 0 0 0 0 0 1 0 0 0 0 1
0 0 0 0 0 0 0 0 0 0 0 0 0 0 0 0 0 0 0 0 0 0 0 0 0 0 0 0 0 0 0 4 3 1 0 0 0 0 0 0 0 0 0
0 0 0 0 0 0 0 0 0 0 0 0 0 0 0 0 0 0 0 0 0 0 0 0 0 0 0 0 0 0 3 8 6 11 2 0 0 0 0 0 0 0 0
CIN
0 0 0 0 0 0 0 0 0 0 0 0 0 0 0 0 0 0 0 0 0 0 0 0 0 0 0 0 0 0 0 0 0 0 -2 -1 0 0 0 0 -15 0 0
0 0 0 0 0 0 0 0 0 0 0 0 0 0 0 0 0 0 0 0 0 0 0 0 0 0 0 0 0 0 0 0 0 0 0 0 0 -2 0 0 0 0 0
0 0 0 0 0 0 0 0 0 0 0 0 0 0 0 0 0 0 0 0 0 0 0 0 0 0 0 0 -1 0 0 0 0 0 0 -1 -1 0 0 -1 0 0 0
0 0 0 0 0 0 0 0 0 0 0 0 0 0 0 0 0 0 0 0 0 0 0 0 0 0 0 0 0 -1 -1 0 0 -1 -1 -1 -1 0 0 0 0 0 0
0 0 0 0 0 0 0 0 0 0 0 0 0 0 0 0 0 0 0 0 0 0 0 0 0 0 0 0 0 0 0 0 0 0 -1 -1 -1 0 0 -1 0 -1 -1
0 0 0 0 0 0 0 0 0 0 0 0 0 0 0 0 0 0 0 0 0 0 0 0 0 0 0 0 0 0 0 0 0 0 0 0 0 0 0 0 -1 0 0
0 0 0 0 0 0 0 0 0 0 0 0 0 0 0 0 0 0 0 0 0 0 0 0 0 0 0 0 0 0 0 0 0 0 0 0 0 0 -1 0 0 0 0
0 0 0 0 0 0 0 0 0 0 0 0 0 0 0 0 0 0 0 0 0 0 0 0 0 0 0 0 0 0 0 0 0 0 0 0 0 0 0 -1 -2 0 -1
0 0 0 0 0 0 0 0 0 0 0 0 0 0 0 0 0 0 0 0 0 0 0 0 0 0 0 0 0 0 0 0 0 0 0 0 0 0 0 -2 -1 0 0
0 0 0 0 0 0 0 0 0 0 0 0 0 0 0 0 0 0 0 0 0 0 0 0 0 0 0 0 -8 -18 0 0 0 0 0 0 0 0 0 0 -5 0 0
0 0 0 0 0 0 0 0 0 0 0 0 0 0 0 0 0 0 0 0 0 -2 -3 0 0 0 0 0 0 -4 -1 -2 -4 -1 0 0 0 0 0 0 0 -3 -1
0 0 0 0 0 0 0 0 0 0 0 0 0 0 0 0 0 0 0 0 -1 -5 0 0 0 -1 0 0 -1 0 0 -1 0 0 0 0 0 0 0 0 0 0 0
0 0 0 0 0 0 0 0 0 0 0 0 0 0 0 0 0 0 0 0 0 -1 -2 -1 0 0 0 -2 0 0 0 0 0 0 0 0 0 0 0 0 0 0 0
0 0 0 0 0 0 0 0 0 0 0 0 0 0 0 0 0 0 0 -1 -1 0 0 -2 -1 0 0 -1 -1 0 0 0 0 0 0 0 0 0 0 0 0 0 -1
0 0 0 0 0 0 0 0 0 0 0 0 0 0 0 0 0 -1 0 -1 -1 0 -1 0 0 0 0 0 0 0 0 0 0 0 0 0 0 0 0 0 0 -2 -1
0 0 0 0 0 0 0 0 0 0 0 0 0 -1 -2 0 0 0 0 0 0 0 -2 -1 0 -1 0 0 0 0 0 0 0 0 0 0 0 0 0 0 0 0 -1
0 0 0 0 0 0 0 0 0 0 0 0 0 0 0 0 0 0 0 0 0 -1 0 0 -1 0 0 0 -2 -1 0 0 0 0 0 0 0 0 0 0 0 -1 0
0 0 0 0 0 0 0 0 0 0 0 0 0 0 0 0 0 0 0 -1 0 0 0 0 -1 -1 0 0 0 0 0 0 0 0 0 0 0 0 0 0 0 0 0
0 0 0 0 0 0 0 0 0 0 0 0 0 0 0 0 0 0 0 0 0 0 0 0 0 0 -1 -1 0 0 0 0 0 0 0 0 0 0 0 0 -1 0 0
0 0 0 0 0 0 0 0 0 0 0 0 0 0 0 0 0 0 0 0 0 0 0 0 0 0 0 0 0 0 0 0 0 0 0 0 0 0 0 0 0 -1 0
0 0 0 0 0 0 0 0 0 0 0 0 0 0 0 -1 0 0 0 0 0 0 0 0 0 0 0 0 0 0 0 0 0 0 0 0 0 0 0 0 0 0 0
0 0 0 0 0 0 0 0 0 0 0 0 0 0 0 0 0 0 0 0 0 0 0 0 0 0 0 0 0 0 0 0 0 0 0 0 0 0 0 0 0 -1 0
0 0 0 0 0 0 0 0 0 0 0 0 0 0 0 0 0 0 0 0 0 0 0 0 0 0 0 0 0 0 0 0 0 0 0 0 0 0 0 0 0 0 -1
0 0 0 0 0 0 0 0 0 0 0 0 0 0 0 0 0 0 0 0 0 0 0 0 0 0 0 0 0 0 0 0 0 0 0 0 0 0 0 -1 0 0 0
0 0 0 0 0 0 0 0 0 0 0 0 0 0 0 0 0 0 0 0 0 0 0 0 0 0 0 0 0 0 0 0 0 0 0 0 0 0 0 0 0 0 0
0 0 0 0 0 0 0 0 0 0 0 0 -1 0 0 0 0 0 0 0 0 0 0 0 0 0 0 0 0 0 0 0 0 0 0 0 0 0 0 0 0 0 0
Wind_Speed
4 4 5 5 5 6 7 8 8 8 9 8 8 8 8 8 7 7 7 8 7 5 5 5 6 7 5 4 4 4 6 5 5 5 6 9 9 12 12 10 8 9 9
3 3 3 4 5 6 7 8 8 8 9 9 9 8 8 9 7 8 8 8 7 7 7 5 5 4 5 5 4 5 4 6 6 9 6 6 10 9 9 12 9 7 7
2 2 2 3 3 3 3 3 3 4 5 5 6 7 8 7 6 6 6 7 7 7 8 6 5 6 6 5 4 5 4 5 5 6 7 7 7 8 10 6 7 7 5
3 2 1 1 2 3 4 4 4 4 4 4 3 3 4 6 3 4 5 6 6 6 6 6 4 6 6 5 4 4 4 4 4 5 6 6 6 8 6 8 9 6 8
4 2 1 2 4 5 6 6 6 6 6 6 7 7 7 6 6 6 4 3 4 6 5 5 5 7 12 8 4 4 5 4 5 5 5 4 6 7 9 7 8 9 10
3 3 2 1 3 4 5 5 6 6 6 6 6 5 6 5 10 10 7 3 5 6 7 6 5 8 5 6 4 8 8 5 5 4 3 5 6 7 7 8 7 8 6
4 3 2 1 3 4 4 5 5 5 5 5 5 5 5 5 13 13 12 2 4 4 5 6 7 6 8 4 1 3 5 8 9 5 5 5 8 8 7 8 9 8 9
4 3 3 1 2 3 3 4 5 3 4 4 5 6 6 6 14 14 13 4 4 6 5 6 5 6 6 7 3 2 5 5 5 5 5 6 5 8 7 7 10 11 9
5 4 2 0 2 2 3 3 3 2 3 3 4 5 5 6 14 12 9 3 4 5 5 6 7 8 14 16 4 5 6 6 9 13 13 14 16 17 14 7 7 8 9
6 4 2 0 2 3 3 4 3 3 4 4 5 5 8 6 11 14 12 4 5 5 7 6 12 12 16 16 6 5 5 7 6 6 5 9 9 8 14 5 6 7 7
5 4 2 2 3 4 3 2 3 4 4 5 5 5 6 7 7 14 15 6 5 5 4 5 4 15 18 19 19 9 7 8 8 4 5 4 6 5 5 4 5 4 8
5 3 3 3 3 2 2 3 3 4 4 5 5 5 4 5 10 13 16 15 14 7 7 6 7 17 20 19 16 15 18 17 2 4 3 5 6 6 6 5 6 7 7
4 3 3 2 3 3 2 4 3 3 3 4 3 4 3 3 3 14 16 15 15 11 8 14 23 21 21 14 16 19 19 3 4 3 4 5 5 6 6 4 7 9 9
4 3 3 3 4 2 2 2 2 3 3 3 4 4 4 4 4 4 5 6 12 10 12 9 13 18 20 17 14 10 6 5 4 4 4 4 4 3 4 3 6 8 9
3 3 3 2 2 3 3 3 3 3 3 4 3 4 5 6 6 14 14 9 9 11 16 7 6 4 6 7 7 7 6 4 3 3 3 5 6 7 6 4 6 7 10
5 3 2 2 2 3 3 3 6 9 11 13 15 12 7 14 19 20 18 20 21 22 10 6 7 6 8 7 6 6 3 6 3 4 3 3 6 7 7 7 6 7 10
5 3 2 3 3 3 2 3 5 4 10 12 14 16 16 17 19 19 19 20 20 17 7 8 8 7 7 7 7 6 7 5 5 4 3 4 5 6 10 7 7 8 10
5 7 3 3 3 3 3 4 3 4 6 5 8 13 15 18 18 19 19 17 8 8 6 8 8 8 8 8 7 6 6 5 4 5 5 5 5 6 8 8 8 10 10
4 3 3 3 3 4 3 3 3 4 5 5 5 8 11 16 18 18 16 6 7 8 7 8 8 8 8 7 7 7 8 8 8 5 3 3 6 7 9 8 9 18 19
4 8 6 3 3 3 3 3 4 4 4 5 5 6 6 10 6 6 7 6 7 7 8 9 9 9 9 8 8 8 8 8 8 6 6 6 7 8 10 9 9 10 10
4 3 7 3 3 3 3 3 4 4 5 5 5 6 17 9 7 8 8 8 8 8 9 9 9 9 9 9 8 8 9 9 8 8 7 8 8 8 8 10 10 11 11
4 4 3 3 3 3 4 3 3 4 5 4 6 7 16 6 7 8 9 9 9 9 9 9 9 9 9 9 9 9 10 10 9 8 8 9 8 8 9 8 8 11 11
4 4 3 3 3 6 2 3 4 4 4 4 4 6 6 6 8 8 9 9 9 10 10 10 10 10 10 9 9 10 10 10 10 8 8 8 8 8 7 9 11 11 11
5 4 4 3 3 3 2 3 4 7 7 5 5 5 6 7 8 10 10 9 10 11 11 10 10 14 13 12 10 9 10 10 9 9 11 9 9 11 9 10 10 13 12
5 4 4 3 3 2 2 3 5 4 3 4 5 5 6 7 9 10 9 10 10 11 13 12 11 14 16 18 17 16 16 23 16 13 9 11 13 14 12 10 12 12 13
5 5 4 3 3 3 3 3 4 3 3 4 5 5 6 8 9 9 10 11 10 12 15 12 13 18 19 15 16 18 22 21 16 20 12 9 10 9 9 11 14 11 11
Wind_Direction
349 356 12 7 7 17 12 12 12 13 22 17 9 9 16 15 20 38 29 29 37 26 19 23 23 12 21 25 9 360 351 319 300 321 326 317 320 338 333 310 264 240 233
301 328 19 27 23 24 24 17 15 17 13 9 1 2 6 8 17 32 23 17 14 9 0 3 10 9 28 12 0 31 330 332 316 307 314 337 320 309 328 322 325 281 258
143 109 49 27 51 54 36 23 30 21 7 5 9 5 359 356 22 24 29 14 12 358 348 357 6 18 8 347 342 6 334 323 321 304 318 328 319 328 323 319 330 319 341
194 169 106 28 22 14 6 6 4 5 23 23 14 7 355 346 15 27 30 17 358 341 341 334 0 359 341 331 337 325 332 326 319 313 311 313 319 340 315 334 340 350 324
201 191 308 2 9 5 2 359 1 10 8 4 6 3 3 354 1 356 15 8 352 340 334 337 346 334 327 350 354 5 357 341 334 324 316 315 332 347 348 333 332 333 333
171 192 195 54 9 359 355 355 3 360 358 5 0 354 351 346 339 344 352 17 350 340 335 326 308 297 309 335 10 9 360 340 323 318 323 338 330 331 336 329 325 330 324
186 203 177 75 13 354 350 357 351 347 346 346 343 345 337 327 344 347 347 41 343 319 314 313 314 310 310 265 297 14 339 334 328 313 305 311 310 314 312 315 311 307 297
194 183 150 91 358 341 346 347 333 332 335 334 331 333 334 325 336 340 333 353 334 321 314 310 317 312 313 284 224 299 286 273 274 281 274 276 267 290 294 298 298 292 284
197 178 165 116 305 314 316 313 298 295 296 293 299 311 317 311 326 329 336 299 285 288 288 301 316 315 311 307 285 289 290 287 293 296 303 303 306 309 308 311 306 303 303
173 178 155 228 283 293 295 306 275 300 300 308 315 317 328 332 340 347 343 332 299 293 293 292 298 309 313 306 299 253 268 271 276 293 296 307 310 291 305 283 284 297 300
159 160 188 245 253 259 274 288 297 317 330 337 328 331 344 339 339 338 333 327 305 298 317 304 284 302 302 298 295 294 265 271 283 274 285 298 297 292 284 277 266 276 298
165 183 231 249 268 316 308 309 322 335 336 329 329 323 321 321 330 328 325 323 321 326 310 301 285 295 304 310 312 298 302 297 211 244 283 285 284 284 274 270 271 275 263
166 211 239 276 287 291 305 313 315 330 327 313 304 296 291 285 287 313 319 317 319 312 306 299 304 307 302 300 293 294 301 278 247 247 244 250 251 256 268 269 283 271 265
186 221 240 244 267 275 303 285 291 304 295 279 289 291 286 288 281 271 278 293 298 302 296 291 287 294 299 293 299 292 272 250 234 235 246 255 267 268 260 246 281 292 288
185 216 242 256 267 293 281 255 272 260 253 272 276 299 299 302 293 309 321 315 310 308 314 302 286 270 275 273 272 275 280 260 255 254 264 278 287 293 281 272 275 283 281
192 212 232 257 291 306 310 307 313 313 322 316 315 311 305 309 315 317 320 320 316 319 317 309 298 290 296 281 275 276 263 291 265 262 241 242 282 285 284 284 265 282 282
192 199 233 268 271 287 302 313 317 315 313 314 314 312 315 312 320 322 322 320 323 328 311 300 296 296 293 295 295 294 291 271 262 255 233 237 268 270 289 281 278 276 280
188 223 207 233 255 272 288 284 277 293 310 307 307 311 312 321 321 318 321 327 319 312 298 300 301 300 297 293 286 283 282 277 258 259 261 261 262 273 284 281 285 287 281
196 214 220 229 249 266 268 283 280 280 279 286 303 304 312 315 317 315 320 303 294 299 298 293 291 291 290 291 289 288 282 279 275 270 253 257 275 279 282 275 280 292 292
208 231 236 207 238 264 265 269 280 277 273 286 295 302 306 309 313 313 306 298 293 292 292 289 287 284 283 282 281 282 284 288 284 272 270 267 273 272 275 273 278 280 282
203 213 237 230 225 249 239 253 266 274 275 285 293 300 316 320 320 308 303 300 296 293 289 284 282 279 275 272 269 272 272 272 268 266 263 265 268 270 283 277 280 278 277
198 208 215 212 231 244 259 249 257 281 283 283 295 304 317 317 300 296 295 294 295 290 284 279 274 271 270 268 265 264 265 267 268 265 263 261 263 268 274 273 290 284 280
191 203 211 213 216 269 280 288 273 272 271 274 287 301 309 305 301 295 294 295 294 290 286 280 276 275 269 262 254 253 258 260 261 260 262 264 265 269 265 281 281 280 283
192 205 212 220 206 209 222 259 265 292 295 299 300 300 302 300 299 295 295 295 293 291 288 284 279 274 275 268 261 252 251 253 256 256 256 263 265 274 273 271 271 276 279
194 204 215 212 208 212 263 269 271 262 266 284 294 300 301 300 298 295 296 295 294 294 293 291 284 279 271 268 262 258 256 261 259 255 250 249 253 256 258 263 268 273 279
197 208 207 197 209 206 222 246 256 258 267 281 294 296 298 300 296 296 297 298 300 302 301 294 289 286 283 276 267 263 268 271 269 266 260 252 253 254 252 258 267 272 278